THOR ABLE DEB (YO), 115

Orbit data source: Space-Track

THOR ABLE DEB (YO), 115 is space debris in LEO originally from a launch on Fri, 01 Apr 1960 UTC launched from the Air Force Eastern Test Range (AFETR). Debris objects in space refer to the collection of defunct objects orbiting the Earth. Examples of debris include non-operational satellites, rocket bodies, and fragments generated from explosions, collisions, or faulty payload assembly.

Loading next visibility...
Identifier
115, 1960-002D
Orbit
LEO
Last TLE update
2 days ago
Origin
Manufacturer
RCA/East Windsor
Mission
Spacecraft
Bus & Motor
Unknown
Mass
~1 kg wet, ~1 kg dry
Launch date (UTC)
1960-04-01 (65 years ago)
Launch vehicle
Unknown
Launch site
Air Force Eastern Test Range (AFETR)
Object type
Payload
Rocket body
Debris
Shape & HBR
Unknown
Radar Cross Section
Small (<0.1 m²)

Expand to show TLE details & history

TLE from 2 days ago
0 THOR ABLE DEB (YO)
1 00115U 60002D   25127.50218784  .00004268  00000-0  40625-3 0  9997
2 00115  48.1627 291.5962 0028427 234.2325 125.5948 14.94840075457377
Epoch: 2025-05-07T12:03Z
Definitive object data (Epoch: 2025-05-07T12:03:09.029Z)
Latitude
-0.00004°
Longitude
-114.77757°
Altitude
594.769 km
Speed
7.558 km/s
True Right ascension
19h 26m 23s
True Declination
0° 00' 00"
Sunlit
Object was in daylight at TLE epoch
Visualization TLE readout
Latitude
1.23228°
Longitude
55.45277°
Altitude
574.272 km
Speed
7.58 km/s
Apparent Right ascension
05h 08m 13s
Apparent Declination
-20° 56' 22"
Sunlit
Object is in daylight
Visualization observer readout
Local Sidereal Time
14:42:18
Azimuth
290.515° WNW
Elevation
-53.64°
Doppler factor
1
Orbital elements
Apogee altitude
603.724 km
Perigee altitude
564.141 km
Semi-major axis
6,962.07 km
Eccentricity
0.0028427
Inclination
48.1627°
RAAN
291.5962°
Arg. of periapsis
234.2325°
True anomaly
125.85914°
Mean anomaly
125.5948°
Eccentric anomaly
125.72702°
Mean motion
3.73625 °/min
BSTAR
0.00040625
Orbital period
96.35 mins
Loading maneuver chart data...
Loading SW <> Apogee altitude chart data...
Loading historical data...
Loading historical data...
Loading historical data...
Loading historical data...
Loading historical data...
Loading historical data...
Loading historical data...
Other satellites on launch #2 in the year 1960 (1960-04-01 UTC)

THOR ABLE DEB (YO) Visibility forecast

Observer location: undefined°, undefined°

Span
Click to sort rows by Start time (UTC) header in descending order
Start Az.
Max El. time (UTC)
Max El. Az.
Max El.
End time (UTC)
End Az.
6 mins2025-05-09 12:20:27.080Z178.236° S2025-05-09 12:23:27.080Z126.667° SE20.601°2025-05-09 12:26:27.080Z84.23° E
7 mins2025-05-09 14:00:27.080Z247.768° W2025-05-09 14:03:27.080Z327.325° NNW43.977°2025-05-09 14:07:27.080Z56.652° ENE
6 mins2025-05-09 15:42:27.080Z302.535° NW2025-05-09 15:44:27.080Z342.234° N26.702°2025-05-09 15:48:27.080Z51.47° ENE
6 mins2025-05-09 17:23:27.080Z315.244° NNW2025-05-09 17:26:27.080Z12.482° NNE27.263°2025-05-09 17:29:27.080Z67.365° ENE
7 mins2025-05-09 19:04:27.080Z303.484° NW2025-05-09 19:07:27.080Z355.627° N44.332°2025-05-09 19:11:27.080Z116.6° SE
4 mins2025-05-09 20:46:27.080Z253.28° W2025-05-09 20:48:27.080Z216.887° SW18.728°2025-05-09 20:50:27.080Z185.7° SSW
|